S57D-6 Weather Reports


time (UTC)temp
C
wind
direction
speed
KPH
gust
KPH
rain 1hr
cm
rain 24hr
cm
rain mn
cm
humidity
%
barometer
mb
20260503035247 5 22 0.0 0.0 0.00 0.00 0.00 87 1018.5
20260503034746 5 22 0.0 0.0 0.00 0.00 0.00 87 1018.4
20260503033746 5 22 0.0 0.0 0.00 0.00 0.00 87 1018.4
20260503033246 5 22 0.0 0.0 0.00 0.00 0.00 87 1018.5
20260503032745 5 22 0.0 0.0 0.00 0.00 0.00 87 1018.4
20260503031744 6 22 0.0 0.0 0.00 0.00 0.00 87 1018.5
20260503031246 6 22 0.0 0.0 0.00 0.00 0.00 87 1018.5
20260503030744 6 22 0.0 0.0 0.00 0.00 0.00 87 1018.5
20260503030247 6 22 0.0 0.0 0.00 0.00 0.00 87 1018.5
20260503025242 6 22 0.0 0.0 0.00 0.00 0.00 87 1018.4
20260503024241 6 22 0.0 0.0 0.00 0.00 0.00 86 1018.6
20260503023742 6 22 0.0 0.0 0.00 0.00 0.00 86 1018.5
20260503023241 6 22 0.0 0.0 0.00 0.00 0.00 86 1018.7
20260503022741 6 315 0.0 0.0 0.00 0.00 0.00 86 1018.6
20260503022240 6 315 0.0 0.0 0.00 0.00 0.00 86 1018.6
20260503021239 6 0 0.0 0.0 0.00 0.00 0.00 86 1018.7
20260503020740 6 292 0.0 0.0 0.00 0.00 0.00 85 1018.8
20260503020239 7 22 0.0 0.0 0.00 0.00 0.00 85 1018.7
20260503015739 7 22 0.0 0.0 0.00 0.00 0.00 85 1018.7
20260503015238 7 22 0.0 0.0 0.00 0.00 0.00 85 1018.8
20260503014739 7 22 0.0 0.0 0.00 0.00 0.00 85 1018.8
20260503014238 7 22 0.0 0.0 0.00 0.00 0.00 85 1018.8
20260503013738 7 22 0.0 0.0 0.00 0.00 0.00 85 1018.8
20260503013237 7 22 0.0 0.0 0.00 0.00 0.00 85 1018.8
20260503012741 7 22 0.0 0.0 0.00 0.00 0.00 85 1018.8
20260503012237 7 22 0.0 0.0 0.00 0.00 0.00 85 1018.8
20260503011737 7 22 0.0 0.0 0.00 0.00 0.00 84 1018.9
20260503011236 7 22 0.0 0.0 0.00 0.00 0.00 84 1018.9
20260503010737 7 22 0.0 0.0 0.00 0.00 0.00 84 1018.9
20260503010235 7 0 0.0 0.0 0.00 0.00 0.00 84 1019.0
20260503005736 7 0 0.0 0.0 0.00 0.00 0.00 84 1018.9
20260503005235 7 22 0.0 0.0 0.00 0.00 0.00 83 1019.0
20260503004736 7 22 0.0 0.0 0.00 0.00 0.00 83 1019.0
20260503004234 7 22 0.0 0.0 0.00 0.00 0.00 83 1019.0
20260503003735 7 22 0.0 0.0 0.00 0.00 0.00 83 1019.1
20260503003234 7 22 0.0 0.0 0.00 0.00 0.00 83 1019.2
20260503002734 7 22 0.0 0.0 0.00 0.00 0.00 83 1019.2
20260503002233 7 22 0.0 0.0 0.00 0.00 0.00 83 1019.3
20260503001734 7 22 0.0 0.0 0.00 0.00 0.00 83 1019.3
20260503001233 8 22 0.0 0.0 0.00 0.00 0.00 83 1019.3
20260503000733 8 337 0.0 0.0 0.00 0.00 0.00 82 1019.3
20260503000233 8 0 0.0 0.0 0.00 0.00 0.00 82 1019.3
20260502235734 8 0 0.0 0.0 0.00 0.00 0.00 82 1019.3
20260502235231 8 337 0.0 0.0 0.00 0.00 0.00 82 1019.2
20260502234732 8 337 0.0 0.0 0.00 0.00 0.00 82 1019.4
20260502234231 8 337 0.0 0.0 0.00 0.00 0.00 81 1019.4
20260502233732 8 0 0.0 0.0 0.00 0.00 0.00 81 1019.4
20260502233230 8 0 0.0 0.0 0.00 0.00 0.00 81 1019.4
20260502232731 8 0 0.0 0.0 0.00 0.00 0.00 81 1019.4
20260502232230 8 337 0.0 0.0 0.00 0.00 0.00 80 1019.5
20260502231730 8 22 0.0 0.0 0.00 0.00 0.00 80 1019.5
20260502231229 8 22 0.0 0.0 0.00 0.00 0.00 80 1019.4
20260502230732 8 22 0.0 0.0 0.00 0.00 0.00 79 1019.4
20260502230730 8 22 0.0 0.0 0.00 0.00 0.00 79 1019.4
20260502230229 8 22 0.0 0.0 0.00 0.00 0.00 79 1019.4
20260502225228 9 22 0.0 0.0 0.00 0.00 0.00 79 1019.6
20260502224730 9 22 0.0 0.0 0.00 0.00 0.00 79 1019.6
20260502224227 9 22 0.0 0.0 0.00 0.00 0.00 78 1019.7
20260502223728 9 22 0.0 0.0 0.00 0.00 0.00 78 1019.6
20260502223227 9 315 0.0 0.0 0.00 0.00 0.00 78 1019.6
20260502222226 10 0 0.0 0.0 0.00 0.00 0.00 77 1019.6
20260502221727 10 315 0.0 0.0 0.00 0.00 0.00 77 1019.6
20260502221226 10 337 0.0 0.0 0.00 0.00 0.00 76 1019.6
20260502220726 10 22 0.0 0.0 0.00 0.00 0.00 76 1019.6
20260502220225 10 315 0.0 0.0 0.00 0.00 0.00 75 1019.6
20260502215726 10 315 0.0 0.0 0.00 0.00 0.00 75 1019.5
20260502215225 10 337 0.0 0.0 0.00 0.00 0.00 75 1019.6
20260502214224 11 0 0.0 0.0 0.00 0.00 0.00 75 1019.4
20260502213725 11 0 0.0 0.0 0.00 0.00 0.00 74 1019.5
20260502213223 11 0 0.0 0.0 0.00 0.00 0.00 74 1019.5
20260502212724 11 0 0.0 0.0 0.00 0.00 0.00 73 1019.6
20260502212223 11 0 0.0 0.0 0.00 0.00 0.00 73 1019.5
20260502211724 11 22 0.0 0.0 0.00 0.00 0.00 73 1019.4
20260502211222 11 22 0.0 0.0 0.00 0.00 0.00 73 1019.5
20260502210723 11 0 0.0 0.0 0.00 0.00 0.00 72 1019.3
20260502210222 11 0 0.0 0.0 0.00 0.00 0.00 72 1019.3
20260502205724 11 0 0.0 1.6 0.00 0.00 0.00 71 1019.3
20260502205221 12 67 0.0 0.0 0.00 0.00 0.00 71 1019.3
20260502204723 12 22 0.0 0.0 0.00 0.00 0.00 70 1019.3
20260502204223 12 22 0.0 0.0 0.00 0.00 0.00 69 1019.5
20260502203220 12 315 0.0 0.0 0.00 0.00 0.00 68 1019.4
20260502202721 13 157 0.0 0.0 0.00 0.00 0.00 67 1019.4
20260502202219 13 112 0.0 0.0 0.00 0.00 0.00 66 1019.4
20260502201720 13 45 0.0 0.0 0.00 0.00 0.00 66 1019.4
20260502201219 13 45 0.0 0.0 0.00 0.00 0.00 65 1019.3
20260502200720 13 22 0.0 0.0 0.00 0.00 0.00 64 1019.4
20260502200218 14 45 0.0 0.0 0.00 0.00 0.00 63 1019.3
20260502195719 14 67 0.0 0.0 0.00 0.00 0.00 62 1019.3
20260502195218 15 337 0.0 0.0 0.00 0.00 0.00 61 1019.2
20260502194718 15 0 0.0 0.0 0.00 0.00 0.00 60 1019.2
20260502194217 15 225 0.0 0.0 0.00 0.00 0.00 60 1019.1
20260502193217 15 202 0.0 0.0 0.00 0.00 0.00 60 1019.0
20260502192717 15 315 0.0 0.0 0.00 0.00 0.00 61 1019.0
20260502192216 15 292 0.0 0.0 0.00 0.00 0.00 60 1019.1
20260502191216 16 337 0.0 0.0 0.00 0.00 0.00 58 1018.9
20260502190716 16 337 0.0 0.0 0.00 0.00 0.00 57 1019.0
20260502185913 16 135 0.0 0.0 0.00 0.00 0.00 56 1018.9
20260502184913 16 45 0.0 0.0 0.00 0.00 0.00 55 1018.9
20260502184413 17 45 0.0 0.0 0.00 0.00 0.00 54 1018.7
20260502183912 17 45 0.0 0.0 0.00 0.00 0.00 53 1018.7
20260502183413 17 315 0.0 0.0 0.00 0.00 0.00 51 1018.6
20260502182912 18 337 0.0 0.0 0.00 0.00 0.00 50 1018.6
20260502182414 19 202 0.0 0.0 0.00 0.00 0.00 46 1018.5
20260502181911 19 135 0.0 0.0 0.00 0.00 0.00 46 1018.3
20260502181412 20 135 0.0 0.0 0.00 0.00 0.00 45 1018.3
20260502180911 20 135 0.0 0.0 0.00 0.00 0.00 44 1018.4
20260502180412 20 247 0.0 0.0 0.00 0.00 0.00 44 1018.4
20260502170205 22 202 0.0 1.6 0.00 0.00 0.00 38 1018.2
20260502164204 23 135 1.6 3.2 0.00 0.00 0.00 37 1018.2
20260502163706 23 135 0.0 0.0 0.00 0.00 0.00 36 1018.2
20260502163204 23 157 0.0 0.0 0.00 0.00 0.00 36 1018.3
20260502162203 23 247 0.0 0.0 0.00 0.00 0.00 36 1018.4
20260502161704 23 247 0.0 0.0 0.00 0.00 0.00 36 1018.4
20260502161202 23 247 0.0 1.6 0.00 0.00 0.00 36 1018.6
20260502160703 23 247 1.6 1.6 0.00 0.00 0.00 36 1018.6
20260502160202 24 247 0.0 1.6 0.00 0.00 0.00 36 1018.4
20260502152200 23 247 0.0 0.0 0.00 0.00 0.00 37 1018.8
20260502151700 23 247 0.0 6.4 0.00 0.00 0.00 37 1018.8
20260502151159 23 247 6.4 9.7 0.00 0.00 0.00 37 1018.9
20260502150700 23 247 9.7 9.7 0.00 0.00 0.00 37 1019.0
20260502150158 23 292 0.0 3.2 0.00 0.00 0.00 37 1019.0
20260502130450 23 157 3.2 3.2 0.00 0.00 0.00 37 1020.4
20260502123449 23 247 3.2 3.2 0.00 0.00 0.00 38 1020.7
20260502122448 23 225 4.8 4.8 0.00 0.00 0.00 39 1020.9
20260502121950 23 157 1.6 1.6 0.00 0.00 0.00 39 1021.1
20260502121448 23 225 1.6 1.6 0.00 0.00 0.00 39 1021.1
20260502120948 23 292 0.0 0.0 0.00 0.00 0.00 39 1021.1
20260502120447 23 45 0.0 3.2 0.00 0.00 0.00 40 1021.2
20260502114945 23 270 0.0 0.0 0.00 0.00 0.00 39 1021.3
20260502114450 23 202 0.0 4.8 0.00 0.00 0.00 38 1021.4
20260502113944 23 135 4.8 6.4 0.00 0.00 0.00 40 1021.6
20260502112742 22 45 1.6 1.6 0.00 0.00 0.00 40 1021.7
20260502111743 22 90 1.6 1.6 0.00 0.00 0.00 40 1021.8
20260502110741 22 135 0.0 3.2 0.00 0.00 0.00 40 1021.9
20260502105740 22 135 0.0 1.6 0.00 0.00 0.00 40 1022.1
20260502105241 22 0 0.0 1.6 0.00 0.00 0.00 41 1022.2
20260502104740 22 225 1.6 3.2 0.00 0.00 0.00 42 1022.2
20260502103739 21 157 3.2 3.2 0.00 0.00 0.00 43 1022.3
20260502102739 21 157 1.6 8.0 0.00 0.00 0.00 44 1022.5
20260502101738 21 180 0.0 0.0 0.00 0.00 0.00 46 1022.6
20260502101239 21 315 0.0 3.2 0.00 0.00 0.00 48 1022.8
20260502100738 20 292 0.0 0.0 0.00 0.00 0.00 48 1022.7
20260502091333 18 202 0.0 1.6 0.00 0.00 0.00 54 1023.6
20260502090332 18 112 0.0 4.8 0.00 0.00 0.00 57 1023.6
20260502071526 12 157 0.0 1.6 0.00 0.00 0.00 71 1024.8
20260502071025 12 247 0.0 1.6 0.00 0.00 0.00 72 1024.7
20260502070525 12 180 1.6 1.6 0.00 0.00 0.00 73 1024.6
20260502070024 12 112 0.0 0.0 0.00 0.00 0.00 74 1024.7
20260502065525 11 180 0.0 0.0 0.00 0.00 0.00 75 1024.7
20260502065024 11 157 0.0 0.0 0.00 0.00 0.00 75 1024.8
20260502064526 10 135 0.0 1.6 0.00 0.00 0.00 76 1024.8
20260502064023 10 135 1.6 1.6 0.00 0.00 0.00 77 1024.9
20260502063524 10 180 1.6 1.6 0.00 0.00 0.00 77 1025.0
20260502062420 9 157 0.0 0.0 0.00 0.00 0.00 80 1025.1
20260502061419 8 202 0.0 1.6 0.00 0.00 0.00 81 1025.1
20260502060920 8 157 1.6 1.6 0.00 0.00 0.00 81 1025.2
20260502060419 8 135 0.0 0.0 0.00 0.00 0.00 82 1025.2
20260502055921 8 135 0.0 0.0 0.00 0.00 0.00 84 1025.2
20260502055418 7 135 0.0 0.0 0.00 0.00 0.00 85 1025.3
20260502054919 7 135 0.0 0.0 0.00 0.00 0.00 86 1025.2
20260502054418 7 157 0.0 0.0 0.00 0.00 0.00 87 1025.3
20260502053919 6 157 0.0 0.0 0.00 0.00 0.00 87 1025.2
20260502053417 6 135 0.0 0.0 0.00 0.00 0.00 88 1025.2
20260502052416 5 135 0.0 0.0 0.00 0.00 0.00 88 1025.3
20260502051917 4 157 0.0 0.0 0.00 0.00 0.00 88 1025.3
20260502051416 4 135 0.0 0.0 0.00 0.00 0.00 88 1025.3
20260502050415 3 22 0.0 0.0 0.00 0.00 0.00 88 1025.3
20260502045917 3 22 0.0 0.0 0.00 0.00 0.00 88 1025.3
20260502045415 3 22 0.0 0.0 0.00 0.00 0.00 88 1025.2
20260502044915 3 22 0.0 0.0 0.00 0.00 0.00 88 1025.3
20260502044414 3 22 0.0 0.0 0.00 0.00 0.00 88 1025.3
20260502043917 3 22 0.0 0.0 0.00 0.00 0.00 88 1025.4
20260502043414 3 22 0.0 0.0 0.00 0.00 0.00 88 1025.3
20260502042915 3 22 0.0 0.0 0.00 0.00 0.00 88 1025.3
20260502042413 3 0 0.0 1.6 0.00 0.00 0.00 88 1025.2
20260502041914 3 22 1.6 1.6 0.00 0.00 0.00 87 1025.1
20260502041412 3 22 0.0 0.0 0.00 0.00 0.00 87 1025.1
20260502040914 3 0 0.0 0.0 0.00 0.00 0.00 87 1025.2
20260502040412 3 22 0.0 0.0 0.00 0.00 0.00 87 1025.2
20260502035913 3 22 0.0 0.0 0.00 0.00 0.00 87 1025.1